Theta_e
317 317 317 318 319 318 318 318 317 318 318 318 319 317 318 315 314 304 296 303 309 315 315 317 321 318 317 311 307 311 294 288 287 287 284 288 285 288 288 284 284 285 284 286 289
316 317 317 317 317 318 317 318 318 317 318 314 315 314 315 309 305 300 308 312 313 313 310 315 312 314 306 304 303 298 289 286 289 287 285 287 287 287 285 284 283 283 286 287 288
315 316 316 316 316 317 317 318 318 316 317 315 314 314 312 309 300 296 310 309 310 313 311 312 313 307 301 298 296 293 286 288 286 288 288 284 282 286 284 280 282 281 283 285 286
314 314 315 315 315 314 315 316 317 316 316 315 315 312 314 306 289 296 309 307 314 314 315 311 309 301 293 291 295 288 290 290 289 291 288 284 285 282 282 281 285 285 286 286 285
313 313 313 315 315 315 314 314 315 314 315 315 314 311 303 293 291 298 307 306 305 310 309 307 302 299 291 291 290 288 287 288 288 287 286 285 282 282 282 285 286 286 286 285 285
311 312 312 314 314 315 315 312 313 313 313 313 312 311 298 287 297 299 298 300 302 308 309 309 303 303 296 293 289 289 289 288 289 288 288 284 283 284 284 286 285 285 284 285 285
310 311 312 312 313 314 312 310 310 312 312 309 308 299 293 289 298 299 299 299 301 307 307 305 307 302 298 290 294 293 288 290 288 290 289 292 282 281 284 286 284 283 284 285 286
309 309 311 312 311 312 314 313 308 311 309 310 306 300 290 297 300 296 298 300 302 302 302 306 307 304 300 299 296 292 293 285 287 291 290 291 277 283 285 284 283 284 285 285 286
308 308 310 311 311 312 312 311 306 305 308 307 301 299 289 301 294 295 296 294 299 301 300 299 298 295 297 292 290 292 286 284 284 291 289 289 278 283 284 284 283 283 284 285 285
307 307 308 310 310 310 309 309 307 307 301 298 297 295 293 289 293 294 296 296 296 299 297 296 294 289 289 290 284 285 284 283 283 287 288 284 280 282 283 282 282 283 284 284 284
306 306 307 308 308 306 305 303 300 297 293 288 287 289 289 292 295 293 294 294 297 293 288 290 284 280 284 288 289 289 285 282 283 285 283 281 279 281 282 282 282 282 283 284 284
306 306 306 307 305 305 304 297 296 297 287 291 289 290 290 292 289 290 295 290 290 285 287 285 279 282 285 286 287 286 284 281 283 285 284 281 279 282 283 282 283 282 282 283 284
305 306 306 306 304 304 299 296 300 297 292 287 289 288 288 291 285 286 290 289 287 284 283 280 279 282 283 282 282 282 282 282 281 284 285 283 280 280 283 283 284 284 284 284 284
304 305 306 305 302 299 297 299 301 299 292 285 287 288 289 289 285 288 288 287 285 281 282 280 282 282 282 279 281 278 283 284 283 283 281 284 281 282 283 282 283 284 285 285 285
302 303 303 301 301 297 299 301 303 300 286 286 286 291 289 286 285 287 289 289 282 282 283 277 279 280 280 278 282 280 285 284 283 282 281 280 280 282 285 281 283 285 285 286 286
302 300 299 302 303 298 301 302 299 290 286 283 285 284 285 286 284 287 287 289 286 283 282 279 281 280 279 281 284 285 283 283 283 282 278 277 278 281 282 284 286 287 287 287 287
301 300 299 299 299 300 301 299 289 287 284 286 282 283 283 281 283 283 282 282 282 282 279 279 278 280 281 280 283 282 282 280 279 279 278 277 276 283 286 286 289 288 288 288 288
299 298 297 297 300 300 300 297 287 285 284 282 282 281 282 280 280 281 281 281 281 280 280 280 277 278 280 278 277 278 278 278 274 276 277 274 275 281 285 287 288 288 290 289 287
297 299 300 298 299 300 298 285 289 287 284 281 281 281 280 279 281 281 281 281 279 279 282 278 275 279 279 280 279 278 279 277 272 264 273 278 279 281 283 284 285 286 287 287 287
297 297 296 297 298 299 293 288 288 284 284 284 284 284 283 280 279 280 280 280 279 279 280 279 276 277 278 279 279 278 279 277 278 274 273 277 276 280 278 281 284 284 285 286 287
297 293 293 296 296 295 287 288 283 284 284 283 284 280 281 279 281 281 283 279 280 279 280 279 280 275 277 276 277 276 276 274 277 275 275 274 279 285 284 284 283 285 286 287 287
296 292 293 294 289 285 285 285 284 282 283 282 284 282 282 280 279 280 281 280 281 281 278 279 282 277 276 277 277 276 277 277 278 273 273 273 276 282 283 285 286 286 286 287 288
292 294 293 293 285 285 280 280 283 280 281 281 281 282 280 279 281 279 279 279 281 280 279 279 279 277 275 274 276 274 276 276 274 276 274 274 278 281 281 282 284 285 286 287 287
292 287 289 291 289 289 284 283 280 282 282 282 280 280 278 276 276 276 277 277 279 279 280 280 278 279 279 276 278 273 275 274 275 274 276 274 278 281 279 280 282 283 284 286 286
294 288 290 283 284 287 286 284 281 277 280 282 278 280 280 274 275 275 277 277 278 280 278 278 276 273 273 273 273 274 275 274 271 277 275 279 278 281 283 283 284 285 284 284 283
287 287 284 287 284 284 286 282 282 280 279 278 279 281 281 277 281 275 277 277 277 279 277 276 275 271 270 269 271 270 274 275 274 275 276 276 275 282 284 285 284 283 283 282 282
291 288 293 287 283 284 285 285 282 283 281 283 281 281 279 280 281 282 282 283 281 278 276 274 271 271 274 267 267 270 273 274 275 277 276 273 279 282 281 280 282 284 282 282 283
Wind_Speed
11 11 11 12 13 12 12 12 13 12 12 10 11 10 7 9 6 27 23 16 17 25 23 6 6 9 11 7 9 3 4 4 4 4 8 8 9 13 15 21 25 16 16 11 11
10 9 10 12 11 11 11 11 11 13 12 10 9 10 6 7 9 25 24 31 28 23 9 9 15 12 7 8 7 8 5 9 9 10 11 13 8 8 10 15 18 20 17 15 14
10 8 10 11 10 11 12 11 12 14 12 10 10 10 4 9 2 14 30 32 29 23 1 2 8 14 18 12 8 7 7 10 14 17 16 16 22 8 5 11 12 16 16 16 16
9 9 9 10 9 12 13 13 12 13 15 13 12 11 11 9 6 14 29 27 21 14 17 18 6 7 9 15 14 9 17 7 8 11 10 15 7 18 17 10 10 12 16 15 18
9 9 8 9 8 10 11 12 12 15 14 14 13 10 6 11 9 17 22 19 11 12 11 10 21 18 14 14 24 15 15 16 18 20 19 20 18 13 17 11 8 9 12 15 16
9 8 6 7 9 10 11 11 12 12 10 12 14 17 9 19 10 17 16 15 18 16 19 17 21 23 19 16 13 10 17 14 16 16 12 16 12 5 9 5 7 5 10 9 12
9 9 8 6 7 11 12 11 9 12 9 10 9 6 19 12 8 13 13 15 15 17 20 9 4 12 14 15 16 17 14 13 12 5 4 4 20 10 3 4 5 5 3 6 8
10 9 10 8 7 10 10 10 6 9 8 10 8 6 9 3 8 21 17 13 15 13 16 15 15 16 13 18 10 8 5 5 12 3 2 5 6 7 8 8 10 10 9 10 12
9 10 11 10 9 11 12 11 5 3 10 9 4 5 6 6 10 13 12 9 6 8 15 6 9 12 10 9 10 3 9 10 5 6 3 3 9 7 5 7 9 9 9 10 11
7 7 8 10 10 10 8 5 12 2 10 2 9 5 8 11 10 11 9 11 5 6 6 10 8 12 14 7 5 7 8 9 9 11 16 17 14 8 6 5 7 8 8 9 10
10 6 7 5 9 10 6 4 4 4 15 8 4 4 5 13 6 14 11 7 4 10 7 18 13 15 15 13 9 11 14 14 10 3 10 12 12 9 7 5 4 6 7 7 9
11 9 7 5 6 8 4 2 4 5 10 7 5 4 3 10 6 23 19 7 10 9 2 8 15 10 6 10 11 12 13 11 9 5 8 9 9 7 6 4 3 3 4 5 6
9 9 5 4 6 2 5 5 5 5 2 4 4 5 5 9 7 14 14 5 14 19 21 15 7 5 4 9 9 12 7 3 6 9 8 6 8 10 8 6 6 5 3 2 2
8 8 2 3 2 0 3 3 3 4 1 6 4 5 2 3 4 5 7 4 5 6 8 10 6 4 4 7 9 5 4 9 7 2 2 2 1 10 11 10 9 8 7 4 2
3 9 7 4 3 2 4 1 2 3 1 4 3 3 3 5 3 11 3 12 8 7 4 4 7 9 9 7 9 5 4 4 2 4 2 2 3 6 11 11 13 12 9 7 3
5 4 2 3 3 3 2 1 1 6 4 1 2 3 1 6 4 5 4 7 4 8 16 6 2 4 5 5 7 6 3 3 1 2 3 3 3 7 8 16 12 14 12 9 8
7 11 3 2 3 4 1 1 5 3 1 2 1 2 4 5 3 6 4 4 3 1 2 3 4 2 4 1 2 3 3 1 3 3 2 3 4 5 8 3 7 11 13 11 9
3 2 7 5 3 3 2 2 1 0 5 3 2 2 1 3 2 2 1 2 4 3 2 4 4 3 5 4 4 3 3 4 4 3 3 2 5 3 3 2 4 4 9 10 9
3 2 3 3 1 2 2 3 7 6 7 11 4 3 3 2 2 2 1 1 2 2 3 3 4 3 4 4 3 2 1 2 3 1 3 1 4 5 6 6 7 8 9 11 10
2 2 3 3 2 3 3 5 4 1 7 4 7 6 6 5 4 3 5 3 5 1 1 2 3 1 3 2 5 3 4 3 2 3 5 3 4 3 10 12 11 11 13 12 10
2 3 3 1 3 2 5 7 3 2 2 7 6 6 5 7 6 4 3 3 4 6 1 2 1 4 2 5 2 4 3 2 1 1 3 5 1 2 7 11 13 13 12 11 11
2 4 2 3 2 0 5 8 5 6 1 2 1 3 7 10 7 5 7 1 6 7 6 3 1 3 1 2 2 3 2 3 3 4 1 2 8 3 3 4 8 10 10 10 10
3 2 1 3 5 4 0 3 4 7 7 7 6 2 3 7 4 5 3 2 6 5 5 6 3 2 3 3 2 5 6 4 3 2 7 4 5 4 5 6 8 9 9 9 9
4 4 1 3 1 5 7 5 6 4 4 4 5 3 5 4 1 6 7 5 6 3 2 3 1 4 4 3 3 5 9 9 3 5 6 11 13 9 9 10 10 11 11 10 10
5 6 6 7 7 6 10 12 9 9 6 8 4 11 8 7 6 6 6 7 6 7 4 3 5 2 1 2 2 5 8 15 13 11 10 11 10 17 8 7 10 10 10 11 11
6 5 2 3 3 15 11 14 14 7 14 8 9 15 13 9 11 15 13 10 8 13 8 5 2 2 1 2 3 7 13 16 20 21 21 18 25 21 22 17 13 12 10 11 11
3 1 2 7 6 9 11 16 20 15 11 5 19 8 14 7 9 6 3 9 10 12 10 8 8 5 4 2 3 6 19 20 14 13 21 16 15 9 5 4 6 4 10 11 10
Wind_Direction
19 21 25 38 43 36 30 27 23 10 3 342 321 333 325 313 316 39 35 337 329 324 310 304 104 78 59 63 51 336 79 65 102 77 126 106 98 62 66 65 57 63 63 52 32
10 19 25 30 26 21 18 16 13 9 4 349 329 333 308 298 16 30 359 348 343 334 345 26 59 61 66 35 42 46 53 35 63 65 77 66 65 55 60 40 43 45 42 44 39
1 12 20 26 18 25 19 8 15 12 13 5 347 360 324 298 353 4 348 343 335 315 292 339 80 62 62 64 28 45 80 105 76 93 82 76 56 43 18 43 30 14 16 22 35
357 6 14 23 30 38 25 15 14 21 17 21 358 341 334 236 43 339 337 336 325 338 58 52 44 67 69 62 50 104 57 62 65 65 79 62 75 63 58 54 37 11 15 20 24
356 357 10 27 20 24 25 24 19 5 5 3 2 334 284 65 28 335 334 353 352 24 37 57 79 76 89 99 71 68 87 79 93 91 85 89 70 73 55 51 39 24 31 25 29
348 345 6 12 23 30 26 24 13 7 6 9 353 344 83 68 343 347 345 9 24 50 51 71 88 92 78 84 58 117 96 90 82 82 88 82 58 73 31 71 65 35 35 23 29
349 343 345 21 20 359 23 23 22 15 22 17 19 307 40 46 3 1 5 28 39 45 65 77 80 88 102 103 132 121 97 84 43 146 144 298 45 73 183 150 113 99 96 87 78
349 344 338 348 357 350 345 21 343 9 354 354 338 20 60 12 10 20 355 51 46 61 64 80 73 81 76 123 151 122 103 64 11 135 10 203 80 80 113 142 100 111 108 95 73
354 340 337 342 341 342 339 2 25 13 1 334 41 35 45 352 11 350 19 357 350 63 61 77 77 78 154 152 138 168 96 105 76 59 37 59 132 114 75 88 85 70 63 58 56
353 336 335 347 336 337 320 323 359 22 348 108 53 138 47 341 347 340 352 343 1 317 42 22 53 55 38 353 61 119 108 63 80 59 86 98 119 120 104 87 80 88 79 64 53
343 327 317 345 343 356 309 294 234 24 31 57 14 67 1 330 281 13 338 317 15 43 46 39 66 46 25 41 55 77 98 105 102 54 75 103 123 131 136 130 104 81 73 61 53
337 327 317 319 349 350 319 327 54 111 90 38 62 69 8 326 353 12 351 58 44 51 81 97 52 23 30 41 64 84 95 97 87 77 114 134 131 145 171 155 154 135 109 65 49
342 332 318 328 306 11 57 59 357 333 76 38 40 33 352 345 41 360 1 12 57 66 61 68 21 336 24 42 75 47 63 68 104 107 104 163 172 187 189 196 205 209 172 162 53
11 360 318 326 275 16 76 133 342 328 138 14 15 46 360 334 72 11 20 339 42 71 63 63 19 13 70 68 340 73 5 101 118 256 58 281 33 202 188 213 222 219 203 195 128
66 66 70 349 92 263 68 108 10 247 301 28 23 339 21 51 338 35 327 55 60 59 244 56 33 14 36 8 326 103 197 60 43 65 252 151 258 91 183 223 224 221 217 199 178
31 22 306 133 109 90 90 326 274 47 248 90 324 339 182 36 44 335 46 61 351 65 63 82 93 41 23 358 36 127 158 166 188 133 236 140 293 160 184 223 218 208 206 207 201
59 57 50 7 86 132 151 252 26 141 41 209 93 21 76 29 46 25 31 53 338 144 108 139 43 75 7 227 176 268 260 221 200 212 32 116 247 312 189 191 228 201 201 203 207
79 186 45 68 112 157 210 92 178 273 211 124 132 114 92 358 66 38 148 141 87 293 152 192 177 351 358 22 7 26 332 331 307 322 28 149 228 115 139 195 180 246 201 203 208
262 83 97 66 19 258 185 97 210 196 149 149 136 185 169 152 292 244 32 146 66 10 301 154 113 122 54 43 301 101 242 47 97 106 260 92 222 180 177 202 204 206 202 210 217
230 177 90 353 316 232 99 229 208 122 126 164 182 203 179 178 197 213 177 139 149 186 314 127 121 161 104 244 68 316 111 189 164 307 282 169 267 258 206 212 202 212 215 220 226
236 240 77 354 265 204 178 207 158 196 164 176 185 143 203 170 201 197 196 151 193 144 190 175 281 120 254 207 164 159 178 79 45 312 291 309 236 11 195 194 204 213 218 223 227
202 212 59 305 128 171 183 172 126 169 182 174 158 124 166 165 179 213 217 178 162 161 157 126 23 150 88 84 338 293 273 245 242 171 207 318 270 153 159 214 210 209 217 228 236
201 109 79 246 173 216 140 137 181 151 193 181 181 255 117 166 185 202 178 85 154 182 170 175 204 163 202 192 190 240 191 182 86 326 209 216 258 170 183 217 220 230 228 227 238
145 168 149 246 264 176 161 188 180 200 186 169 136 117 122 136 117 172 174 170 175 186 129 168 183 250 273 53 92 191 195 189 202 199 184 232 271 225 208 226 230 235 236 241 243
192 225 178 183 220 193 188 164 152 179 216 184 174 218 185 137 150 191 165 157 188 183 157 220 216 168 230 243 281 259 219 197 206 212 212 262 253 262 273 250 243 242 238 245 260
162 161 204 152 174 182 185 195 181 148 155 213 223 203 195 162 182 187 157 184 184 175 178 177 180 129 277 353 289 278 251 233 228 242 249 259 271 275 274 266 256 243 225 241 248
150 34 178 159 172 183 198 197 198 161 205 197 206 143 195 204 88 82 104 145 148 159 168 163 150 156 219 353 321 259 243 207 211 220 222 233 239 238 250 233 245 207 218 231 241